Погода в Владикавказе

Погода в Владикавказе : погода сейчас, прогноз погоды и архив. Всё, что Вы хотите узнать о погоде в Владикавказе!

Поиск расширенной информации на нашем сайте:

Полезная информация: Интернет магазин вышивки и вязания пряжа http://www.kudel.ru.

Другие новости

Новости СМИ2

Главная страница сайта

Новости сайта

02.10.2013

Напоминаем, что на нашем новом сайте вы можете получить высокодетализированные прогнозы погоды по пунктам России, СНГ и мира (включающие важные для авиации метеовеличины, такие как направление и скорость ветра, видимость, явления погоды, количество и форма облачности, нижняя и верхняя граница облачности), а также ознакомиться с разнообразными материалами по авиационной метеорологии и подборкой полезных ссылок на эту тему.

Сайт Метеоцентр.Азия посвящён разработке технологий оптимизации авиаметеорологического обслуживания, включая проектирование и перспективное создание нескольких автоматизированных авиаметеорологических систем:
- система выпуска высокодетальных прогностических карт явлений погоды для нижнего воздушного пространства по России и ближнему зарубежью;
- система верификации прогнозов TAF (выпускаемых синоптиками официальных АМСГ РФ и ближнего зарубежья) и AUTOTAF (выпускаемых сайтом Метеоцентр.Азия) - выявление ошибок, онлайн-сопоставление с фактической погодой METAR, автоматическое внесение коррективов в прогнозы при резком отклонении фактической погоды от прогноза, подсчёт оправдываемости прогнозов по элементам и в целом;
- система обработки, анализа и отображения авиаметеорологической информации для применения провайдерами метеорологической информации.

Рекомендуем: самолеты

Погода в Владикавказе - сегодня

Время (UTC), дата Ветер
(°,м/с) 
Видим.   Явления Облачность Т
(°С)
Тd
(°С)
f(%) Тe
(°С)
Pmin
(гПа)
dP
(гПа)
Po
(мм)
O2
(г/м3)
Тmin Tmax R s Состояние
почвы
09 26.04.17 300 (СЗ) 20000 м    ясно 
+13.5 -3 32 +14  1028.1  -1.4  710  273           
12 26.04.17 090 (В) 20000 м    1/1 1000 м 
[Cu hum]
+15.1 -1.2 33 +16  1026.2  -1.2  709  271           
15 26.04.17 070 (В) 20000 м    ясно 
+12.6 -0.9 39 +12  1026.5  -0.4  708  273    +15.4       
18 26.04.17 180 (Ю) 10 км    ясно 
+7.4 +0.1 60 +8  1028.9  0.8  709  278           
21 26.04.17 160 (Ю) 10 км    ясно 
+4.9 +0.1 71 +6  1028.8  -0.8  708  280           
00 27.04.17 150 (ЮВ) 10 км    ясно 
+2.6 -0.4 81 +3  1027.8  -1.6  707  282           
03 27.04.17 160 (Ю) 20000 м    ясно 
+2.8 -0.9 77 +4  1027.4  -0.3  707  282  +1.3        сухая 
06 27.04.17 360 (С) 20000 м    ясно 
+12.5 +0.6 44 +14  1024.1  -0.3  707  272           
09 27.04.17 360 (С) 20000 м    ясно 
+16.4 -0.3 32 +17  1022  -0.9  706  268           
12 27.04.17 020 (С) н/о    н/о 
+18.3 +1.4 32 +20  1020  -1.2  705  266           
15 27.04.17 050 (СВ) 20000 м    ясно 
+17.2 +1.1 34 +19  1019.5  -0.8  705  267    +18.8       
18 27.04.17 тихо ()   10 км    ясно 
+11.7 +2.3 52 +12  1021.4  0.3  705  272           
21 27.04.17 280 (З) 10 км    ясно 
+10.5 +3.2 61 +11  1021.5  -0.2  705  273           
00 28.04.17 310 (СЗ) 10 км    ясно 
+8.6 +2.5 65 +10  1020.7  -1.3  704  274           
03 28.04.17 210 (ЮЗ) 20000 м    ясно 
+14.9 -6.1 23 +16  1018.5  -0.4  703  269  +8.3        сухая 
06 28.04.17 190 (Ю) 20000 м    3/0 верхняя 
[Ci]
+21 -5.5 16 +21  1017.1  0.4  704  264           
09 28.04.17 310 (СЗ) 20000 м    4/0 верхняя 
[Ci]
+22 -1.5 21 +22  1015.9  -0.8  703  262           
12 28.04.17 010 (С) 20000 м    5/0 верхняя 
[Cs]
+21.9 +1.6 26 +22  1015.4  -0.5  703  262           
15 28.04.17 070 (В) 20000 м    8/0 верхняя 
[Cs]
+20 +1 28 +20  1016.2  -0.5  703  264    +23.5       
18 28.04.17 тихо ()   10 км    ясно 
+13.6 +4.5 54 +14  1018.7  0.7  703  269           
21 28.04.17 150 (ЮВ) 10 км    ясно 
+10.9 +3.3 59 +12  1019.3  -0.2  703  272           
00 29.04.17 180 (Ю) 10 км    ясно 
+10.2 +2.4 58 +11  1018.9  -0.6  703  272           
03 29.04.17 170 (Ю) 20000 м    ясно 
+9.2 +2.4 62 +10  1019.7  0.5  703  274  +8.2        сухая 
06 29.04.17 350 (С) 20000 м    9/0 средняя, верхняя 
[As trans|Cs]
+18.6 +2 33 +20  1016.8  0.1  703  265           
09 29.04.17 110 (В) 20000 м    8/0 средняя, верхняя 
[Ac As|Cs]
+21.6 +0.4 24 +22  1015  -0.9  702  262           
Время (UTC), дата Ветер
(°,м/с) 
Видим.   Явления Облачность Т
(°С)
Тd
(°С)
f(%) Тe
(°С)
Pmin
(гПа)
dP
(гПа)
Po
(мм)
O2
(г/м3)
Тmin Tmax R s Состояние
почвы

Для получения пояснительной информации подведите курсор к названию столбца.

ПОГОДА в Владикавказе - архив

Всё, что Вы хотите узнать о погоде в Владикавказе - удобно и подробно!

Выберите нужную дату (начиная с 1 января 2015* года) и нажмите кнопку "Найти".
Будут отображены архивные сводки погоды по пункту Владикавказ, начиная с указанной даты.


Отображать данные в формате CSV (для использования в таблицах Excel)


Внимание! Наш архив погоды предназначен исключительно для личного некоммерческого использования в познавательных целях. Если Вам необходимы официальные справки о состоянии погоды (для производственных, юридических, коммерческих и т.п. целей), обращайтесь в органы Росгидромета.

*Примечание: данная дата относится к архиву по метеостанциям СССР (Россия, СНГ, Балтия).
Архив по метеостанциям Зарубежной Европы и Азии (кроме Китая) хранится 10 дней, по другим регионам земного шара (Китай, Африка, Америка, Австралия, Океания) - 1 день.

Владикавказ - район местоположения метеостанции


Название, широта, долгота, высота метеостанции:
Владикавказ 43.1°ш. 44.6°д. 703 м над ур. моря [Российская Федерация]

Дополнительная информация

В oтличие oт бoльшинства пoгoдных сайтoв мы публикуем пoдрoбную метеoинфoрмацию в детальнoм прoфессиoнальнoм фoрмате.

Характеристики температуры и влажнoсти вoздуха измеряются на высoте 2 м в тени вдали oт зданий и деревьев.
Скoрoсть ветра измеряется на высoте 10 м (на урoвне рoста челoвека скoрoсть ветра ниже в 1.5-2 раза). Если метеoстанция нахoдится в гoрoде или в лесу, тo скoрoсть ветра занижена на 2-4 м/с пo сравнению с oткрытым местoм. Скoрoсть ветра над акватoриями крупных рек и oзёр, а также на вершинах хoлмoв на 2-5 м/с выше, чем в oбычных услoвиях.
Атмoсфернoе давление в разных тoчках местнoсти мoжет значительнo oтличаться oт давления на метеoстанции, в зависимoсти oт услoвий рельефа (при пoдъёме на 10 м давление пoнижается примернo на 1 мм рт.ст.).